Vertical_Velocity
0 2 1 2 1 2 1 0 1 2 2 2 -2 -1 -2 2 -2 -2 5 -1 -1 -1 -0 0 -1 -0 -1 -0 1 -0 0 1 1 -1 -1 3 -1 1 -0 3 0 0 -1 -2
1 1 3 0 -0 1 0 1 0 2 1 3 -1 -4 -0 0 -1 -1 -1 2 0 -2 1 0 -2 -1 3 1 0 0 -0 -1 -3 -2 -3 -4 -1 0 1 1 1 -2 -2 -2
1 6 -1 1 0 2 1 1 0 3 -2 0 2 -2 1 3 -2 1 8 1 2 6 6 -1 5 2 -2 -2 0 -1 -1 -2 -1 -0 -0 -0 1 1 -1 0 -1 -1 -1 -1
1 1 1 0 1 2 0 1 0 0 -1 -1 -3 -6 1 1 2 1 2 -3 -3 -5 -0 -1 4 -5 -2 -1 -0 -1 -2 -2 -2 -3 -2 -3 -3 -2 -1 -3 -3 -1 -0 -0
-2 1 0 1 3 1 2 0 1 0 1 1 1 -3 -1 -0 2 1 2 4 2 1 -2 -3 -3 -2 -2 -2 -2 -1 -1 -0 1 1 -2 -3 -2 -2 -1 1 2 1 1 -0
1 -2 1 3 1 0 0 2 3 1 0 -3 -1 -4 -4 -1 -6 2 5 2 -4 -2 -1 -2 -0 3 4 2 2 4 3 -1 -3 -2 1 -0 1 1 1 -0 -1 -1 1 2
2 2 1 1 2 1 3 1 -2 -6 -5 -5 0 -0 -6 1 1 -2 -2 2 -0 0 1 3 4 -2 -3 -4 -6 -5 -3 -1 -1 -1 1 0 0 -1 -1 -0 -1 -2 -3 -2
-3 -4 2 1 2 1 1 1 -5 -4 -2 -3 1 -4 -7 1 2 3 3 1 -2 1 -1 -3 -3 -0 -0 -2 -1 -4 -3 -4 -2 -1 1 -1 -1 0 0 0 1 -0 -2 -2
-0 2 2 -1 0 1 2 -0 3 -1 -1 -2 -4 3 -1 1 2 0 0 -1 1 3 2 -1 -1 1 1 -1 -0 2 2 3 2 2 3 1 0 -2 -2 -0 0 1 2 1
0 -1 -0 2 2 1 -0 -0 -5 -4 -3 -1 -3 -1 -3 2 1 1 3 2 1 -2 -1 1 -1 -3 -3 -2 -2 1 2 1 0 -1 -1 -1 -0 0 -1 -1 -3 -3 -3 1
0 -3 2 1 -0 -3 1 1 1 -5 -2 -3 -2 -7 3 2 1 -1 -1 3 -0 -2 -6 -4 3 4 7 -2 0 -2 -1 0 2 0 0 0 -1 -2 -3 -3 -2 -2 -1 -1
1 -1 -1 -1 2 1 1 0 -3 -5 -3 -2 -4 -12 1 0 -0 -0 3 5 -0 -2 13 -1 -6 -5 5 9 -6 -5 -2 -3 -2 -1 -2 -4 -3 -2 -3 -2 -2 -4 -6 -3
-2 -1 -2 -0 -4 -1 0 -0 -0 -1 -2 -3 -2 -10 1 1 1 1 -1 3 5 1 -3 -7 -7 -4 6 8 13 14 6 1 -2 -3 -4 -5 -3 -1 -3 -4 -6 -2 -4 -5
-3 -0 -2 -7 -5 -4 1 0 0 -2 -1 -3 -7 -3 2 1 1 2 -0 -3 -3 -4 1 2 -0 2 4 6 9 3 6 9 5 5 1 -4 -4 -2 -3 -3 -8 -7 -3 -2
-3 -2 1 -1 0 1 -0 -0 -0 1 -7 0 -4 1 -2 2 1 5 3 -2 -2 -2 -1 -3 -1 -3 -5 -6 -8 -9 -9 -11 1 1 0 2 8 3 -3 -2 -2 -2 -0 -2
1 -3 -1 -2 -1 1 1 -1 0 -0 -2 2 2 -5 1 2 -2 -3 -0 -2 -3 -3 -3 4 0 -2 -1 -5 0 0 -2 3 5 16 20 14 8 4 -4 3 1 2 -3 -3
-3 -2 -2 -2 -0 -2 -6 -8 -2 -1 -0 2 3 -3 1 -0 -0 -0 -4 -1 -1 7 8 -1 -4 -6 -6 0 -1 -6 -5 5 5 3 2 -1 -9 -12 -10 -6 -4 -2 1 3
-1 -1 -1 -2 -3 -5 -13 0 0 1 0 -0 -0 1 1 1 0 -3 -2 9 -1 -5 -7 -7 -4 -3 -0 -0 -3 -4 -1 -4 -1 -1 -3 -2 -8 7 5 1 -3 -6 2 2
-0 -1 -1 -3 -1 -11 -0 2 1 -2 4 1 1 1 0 -1 -1 -8 15 7 7 2 -1 -4 -3 -6 -8 -8 -8 -5 -9 -7 -5 -8 -1 -2 -1 2 -3 0 -1 -3 0 -2
-1 0 -1 1 0 -1 1 2 -0 -1 1 1 -2 -0 0 -2 -0 -4 -7 -9 -12 -5 -3 -5 -5 -2 -1 -8 0 -0 -5 -2 -7 -4 -5 1 -0 -3 -5 -3 -4 -5 3 -4
0 1 -2 -1 -0 -2 1 1 -1 -3 -5 4 4 2 -1 1 1 -1 -2 -5 -4 -2 -5 -5 -3 -5 -6 -4 -1 -2 -1 -6 -4 2 -0 -3 1 0 0 0 -1 -2 -3 1
-6 -3 -1 1 2 -5 -1 1 0 0 -1 -2 -3 1 1 -1 -5 -2 -1 -5 -1 -2 -2 -2 0 -4 -7 -0 6 -3 -2 -7 -2 -1 0 -3 -3 -2 3 4 -3 0 6 2
-4 -4 -3 -7 -6 -1 0 -1 -2 5 2 -1 -2 -5 -0 -0 -2 -1 -4 2 -3 -1 -4 -3 1 1 -4 -3 10 3 -8 6 1 6 4 8 7 6 5 1 -5 0 2 1
1 -0 -1 -6 3 2 1 1 -2 -4 1 2 -1 -3 -1 -3 -2 -2 -0 -3 1 1 2 3 -0 -4 -4 1 -1 1 -3 2 4 1 4 -6 -0 -6 -1 6 5 1 1 3
-2 -1 -2 -2 -3 -1 7 4 3 -2 -2 -2 -1 0 -3 3 -8 1 -3 -2 -3 -3 -6 0 4 0 -8 -6 -6 -3 -5 2 -0 4 0 -2 -2 -1 -3 -3 2 3 -1 10
-2 -4 -3 -5 3 -3 1 1 -3 -4 -5 -6 -2 -8 -4 6 -0 1 -6 -2 1 -2 -3 -3 1 3 -5 -1 -1 -6 0 6 6 -0 -0 -2 0 -2 1 1 -9 -3 0 -3
Height
1511 1515 1517 1517 1515 1515 1513 1512 1511 1514 1520 1523 1519 1515 1511 1513 1516 1518 1520 1522 1527 1530 1530 1530 1531 1532 1533 1533 1533 1532 1531 1531 1530 1529 1529 1528 1527 1526 1525 1524 1522 1521 1520 1519
1514 1515 1517 1517 1517 1516 1513 1514 1514 1515 1519 1521 1516 1514 1510 1512 1515 1516 1518 1522 1526 1529 1530 1531 1532 1533 1533 1533 1533 1532 1531 1530 1529 1528 1528 1527 1526 1524 1524 1522 1521 1520 1518 1518
1512 1519 1519 1518 1518 1516 1516 1520 1523 1526 1522 1514 1517 1514 1513 1514 1516 1517 1519 1521 1526 1529 1530 1532 1533 1533 1532 1532 1532 1531 1530 1529 1528 1527 1526 1525 1524 1523 1521 1520 1518 1517 1516 1515
1517 1521 1519 1519 1518 1520 1518 1525 1525 1526 1529 1530 1515 1536 1515 1516 1518 1520 1521 1524 1527 1529 1530 1531 1532 1532 1532 1531 1531 1530 1529 1528 1527 1526 1525 1523 1522 1521 1519 1518 1516 1515 1514 1513
1522 1521 1521 1520 1524 1522 1527 1527 1528 1528 1530 1526 1518 1535 1509 1514 1520 1520 1521 1523 1526 1528 1529 1530 1530 1530 1530 1530 1530 1529 1528 1527 1525 1524 1523 1522 1521 1520 1518 1517 1515 1513 1512 1510
1521 1522 1523 1524 1524 1525 1526 1526 1527 1525 1528 1546 1515 1523 1519 1517 1511 1514 1517 1520 1524 1526 1527 1528 1528 1528 1529 1529 1529 1529 1528 1526 1525 1524 1523 1521 1521 1519 1517 1516 1515 1513 1512 1510
1522 1524 1525 1525 1525 1526 1526 1525 1544 1546 1550 1545 1518 1524 1515 1508 1506 1506 1511 1518 1523 1526 1527 1528 1529 1529 1529 1528 1527 1526 1525 1524 1523 1522 1520 1519 1518 1517 1516 1514 1513 1511 1509 1508
1529 1534 1524 1525 1525 1525 1523 1526 1544 1550 1548 1541 1521 1527 1512 1508 1509 1510 1514 1519 1523 1527 1528 1528 1528 1528 1527 1527 1526 1526 1524 1523 1522 1520 1519 1517 1516 1515 1513 1511 1510 1508 1506 1504
1513 1525 1526 1525 1526 1530 1526 1535 1529 1533 1527 1543 1525 1507 1512 1511 1513 1515 1518 1521 1524 1526 1527 1528 1527 1527 1526 1525 1524 1523 1522 1521 1519 1518 1516 1514 1513 1512 1510 1508 1507 1504 1503 1501
1511 1525 1521 1526 1526 1527 1526 1528 1538 1545 1552 1536 1515 1506 1512 1513 1514 1515 1518 1521 1524 1527 1528 1528 1527 1527 1526 1524 1523 1521 1520 1518 1517 1515 1514 1512 1511 1509 1507 1504 1501 1499 1498 1496
1510 1515 1529 1527 1527 1523 1531 1530 1529 1533 1535 1545 1544 1530 1507 1511 1511 1514 1516 1519 1523 1525 1527 1526 1525 1525 1522 1521 1520 1519 1518 1517 1515 1513 1511 1510 1508 1506 1504 1501 1498 1495 1492 1490
1511 1512 1527 1516 1521 1521 1522 1520 1523 1543 1532 1535 1544 1538 1510 1510 1510 1511 1514 1516 1520 1523 1524 1523 1522 1522 1521 1519 1518 1517 1516 1514 1512 1510 1508 1506 1504 1501 1499 1496 1493 1490 1487 1483
1511 1521 1532 1525 1527 1523 1522 1519 1519 1532 1536 1534 1547 1530 1509 1509 1512 1514 1515 1518 1519 1519 1519 1519 1519 1519 1518 1517 1517 1515 1514 1512 1510 1507 1504 1502 1499 1496 1493 1490 1488 1485 1481 1477
1511 1517 1518 1525 1517 1516 1522 1519 1519 1526 1545 1526 1515 1508 1511 1511 1515 1515 1517 1518 1518 1520 1520 1519 1518 1518 1516 1516 1515 1513 1511 1509 1506 1503 1499 1496 1493 1489 1486 1483 1480 1478 1475 1471
1514 1528 1515 1513 1511 1512 1514 1515 1516 1524 1516 1523 1506 1508 1509 1512 1514 1516 1518 1519 1520 1519 1518 1517 1517 1516 1515 1513 1511 1509 1506 1503 1500 1495 1492 1488 1486 1483 1481 1478 1474 1470 1467 1464
1511 1526 1529 1531 1512 1512 1512 1511 1509 1507 1506 1504 1506 1506 1511 1512 1514 1516 1516 1516 1517 1518 1517 1516 1514 1512 1511 1509 1506 1502 1498 1495 1492 1486 1483 1480 1477 1474 1474 1472 1468 1464 1460 1457
1515 1524 1531 1522 1515 1518 1522 1504 1502 1500 1500 1502 1506 1506 1510 1513 1515 1517 1517 1516 1515 1514 1514 1512 1511 1508 1506 1503 1500 1495 1492 1488 1484 1480 1476 1473 1469 1466 1466 1464 1461 1457 1454 1451
1509 1519 1523 1530 1523 1540 1499 1496 1498 1499 1503 1505 1506 1509 1512 1514 1516 1517 1516 1515 1512 1511 1511 1509 1506 1503 1500 1497 1493 1489 1485 1480 1476 1472 1468 1465 1462 1460 1456 1455 1452 1449 1446 1443
1505 1511 1523 1530 1524 1503 1492 1499 1499 1500 1507 1508 1510 1511 1513 1515 1515 1514 1513 1511 1510 1508 1506 1504 1501 1498 1493 1490 1486 1482 1478 1473 1469 1464 1461 1457 1455 1453 1450 1447 1444 1441 1438 1434
1508 1508 1518 1521 1526 1510 1498 1501 1501 1502 1511 1510 1512 1513 1514 1513 1515 1513 1510 1508 1506 1504 1502 1499 1496 1492 1488 1484 1481 1476 1471 1466 1462 1457 1453 1450 1448 1445 1441 1438 1435 1431 1428 1425
1513 1513 1513 1510 1511 1499 1501 1500 1501 1512 1520 1512 1512 1512 1511 1512 1512 1508 1508 1505 1503 1499 1496 1493 1490 1486 1482 1478 1474 1468 1463 1458 1454 1450 1445 1442 1439 1436 1433 1429 1425 1422 1419 1416
1502 1509 1514 1511 1513 1509 1500 1503 1506 1512 1510 1510 1510 1511 1510 1508 1506 1503 1501 1499 1496 1492 1488 1485 1481 1477 1473 1470 1465 1459 1454 1449 1445 1441 1436 1433 1430 1427 1424 1421 1417 1413 1410 1407
1502 1494 1496 1499 1499 1498 1499 1502 1505 1506 1507 1508 1507 1507 1505 1503 1500 1498 1494 1491 1488 1484 1481 1477 1473 1469 1465 1460 1455 1449 1444 1441 1436 1432 1428 1424 1420 1417 1414 1411 1407 1404 1401 1398
1492 1493 1497 1497 1496 1497 1500 1503 1504 1504 1505 1504 1504 1503 1502 1499 1495 1491 1487 1483 1480 1477 1473 1470 1465 1459 1453 1450 1445 1441 1435 1431 1427 1422 1417 1414 1410 1407 1404 1400 1397 1394 1391 1388
1493 1494 1495 1495 1493 1494 1496 1498 1499 1500 1501 1500 1499 1498 1496 1492 1487 1484 1480 1475 1471 1468 1464 1461 1456 1450 1444 1440 1434 1430 1426 1421 1416 1411 1407 1404 1400 1397 1393 1390 1387 1384 1381 1380
1489 1490 1495 1497 1493 1494 1496 1496 1496 1497 1497 1497 1495 1491 1488 1485 1481 1478 1473 1468 1465 1460 1456 1451 1446 1441 1434 1429 1424 1420 1416 1412 1407 1401 1397 1394 1391 1387 1383 1379 1375 1373 1370 1368